,,,PA_Meas_PMT16A,,PR_Meas_QMR101_102,,RH_Meas_QMH101,,SR_Meas_QMS101,,TA_Meas_QMH101,,GenWind,,GenWind,
date,time,status,PA,status,PR,status,RH,status,SR,status,TA,status,DirAvg,status,SpdAvg,
2011-04-01, 00:00:04,VALID,1003.61,VALID,0,INVALID,163.624,VALID,0.100563,VALID,25.3955,VALID,358,VALID,0,
2011-04-01, 00:01:04,VALID,1003.61,VALID,0,INVALID,163.655,VALID,0,VALID,25.4149,VALID,358,VALID,0,
2011-04-01, 00:02:04,VALID,1003.59,VALID,0,INVALID,163.609,VALID,0,VALID,25.4169,VALID,358,VALID,0,
2011-04-01, 00:03:04,VALID,1003.57,VALID,0,INVALID,163.662,VALID,0.100563,VALID,25.3955,VALID,358,VALID,0.0992187,
2011-04-01, 00:04:04,VALID,1003.54,VALID,0,INVALID,163.624,VALID,0.100563,VALID,25.376,VALID,358,VALID,0.308594,
2011-04-01, 00:05:04,VALID,1003.51,VALID,0,INVALID,163.655,VALID,0,VALID,25.337,VALID,358,VALID,0.372266,
2011-04-01, 00:06:04,VALID,1003.47,VALID,0,INVALID,163.624,VALID,0,VALID,25.3176,VALID,358,VALID,0.446875,
2011-04-01, 00:07:04,VALID,1003.45,VALID,0,INVALID,163.624,VALID,0,VALID,25.339,VALID,358,VALID,0.239453,
2011-04-01, 00:08:04,VALID,1003.39,VALID,0,INVALID,163.624,VALID,0,VALID,25.2786,VALID,358,VALID,0.242188,
2011-04-01, 00:09:04,VALID,1003.37,VALID,0,INVALID,163.639,VALID,0,VALID,25.2786,VALID,358,VALID,0.0769531,
2011-04-01, 00:10:04,VALID,1003.3,VALID,0,INVALID,163.632,VALID,0,VALID,25.2611,VALID,358,VALID,0,
2011-04-01, 00:11:04,VALID,1003.29,VALID,0,INVALID,163.609,VALID,0.100563,VALID,25.2202,VALID,358,VALID,0.0183594,
2011-04-01, 00:12:04,VALID,1003.25,VALID,0,INVALID,163.632,VALID,0,VALID,25.2202,VALID,358,VALID,0,
2011-04-01, 00:13:04,VALID,1003.22,VALID,0,INVALID,163.662,VALID,0,VALID,25.1813,VALID,358,VALID,0.00234375,
2011-04-01, 00:14:04,VALID,1003.22,VALID,0,INVALID,163.624,VALID,0.100563,VALID,25.1813,VALID,358,VALID,0.198828,
2011-04-01, 00:15:04,VALID,1003.22,VALID,0,INVALID,163.624,VALID,0,VALID,25.1618,VALID,358,VALID,0,
2011-04-01, 00:16:04,VALID,1003.19,VALID,0,INVALID,163.662,VALID,0,VALID,25.1229,VALID,358,VALID,0,
2011-04-01, 00:17:04,VALID,1003.15,VALID,0,INVALID,163.639,VALID,0,VALID,25.1015,VALID,358,VALID,0,
2011-04-01, 00:18:04,VALID,1003.12,VALID,0,INVALID,163.639,VALID,0.100563,VALID,25.1034,VALID,358,VALID,0,
2011-04-01, 00:19:04,VALID,1003.1,VALID,0,INVALID,163.655,VALID,0,VALID,25.0839,VALID,358,VALID,0,
2011-04-01, 00:20:04,VALID,1003.06,VALID,0,INVALID,163.655,VALID,0.100563,VALID,25.0839,VALID,358,VALID,0,
2011-04-01, 00:21:04,VALID,1003.05,VALID,0,INVALID,163.632,VALID,0,VALID,25.0858,VALID,358,VALID,0.0101562,
2011-04-01, 00:22:04,VALID,1003.06,VALID,0,INVALID,163.67,VALID,0.100563,VALID,25.045,VALID,358,VALID,0.021875,
2011-04-01, 00:23:04,VALID,1003.04,VALID,0,INVALID,163.639,VALID,0.100563,VALID,25.045,VALID,358,VALID,0.142969,
2011-04-01, 00:24:04,VALID,1003.04,VALID,0,INVALID,163.662,VALID,0.100563,VALID,25.045,VALID,358,VALID,0,
2011-04-01, 00:25:04,VALID,1003.04,VALID,0,INVALID,163.662,VALID,0,VALID,25.045,VALID,358,VALID,0,
2011-04-01, 00:26:04,VALID,1003.06,VALID,0,INVALID,163.647,VALID,0,VALID,25.0644,VALID,358,VALID,0,
2011-04-01, 00:27:04,VALID,1003.03,VALID,0,INVALID,163.647,VALID,0,VALID,25.0663,VALID,358,VALID,0.172656,
2011-04-01, 00:28:04,VALID,1003.06,VALID,0,INVALID,163.639,VALID,0,VALID,25.045,VALID,358,VALID,0.324609,
2011-04-01, 00:29:04,VALID,1003.04,VALID,0,INVALID,163.647,VALID,0,VALID,25.0663,VALID,358,VALID,0.224609,
2011-04-01, 00:30:04,VALID,1003.04,VALID,0,INVALID,163.662,VALID,0,VALID,25.0469,VALID,358,VALID,0.167578,
2011-04-01, 00:31:04,VALID,1003.08,VALID,0,INVALID,163.647,VALID,0,VALID,25.0663,VALID,358,VALID,0,
2011-04-01, 00:32:04,VALID,1003.13,VALID,0,INVALID,163.678,VALID,0,VALID,25.045,VALID,358,VALID,0.0515625,
2011-04-01, 00:33:04,VALID,1003.21,VALID,0,INVALID,163.67,VALID,0,VALID,25.0858,VALID,266,VALID,0.604297,
2011-04-01, 00:34:04,VALID,1003.29,VALID,0,INVALID,163.639,VALID,0,VALID,25.1248,VALID,202,VALID,1.03047,
2011-04-01, 00:35:04,VALID,1003.43,VALID,0,INVALID,163.662,VALID,0,VALID,25.1423,VALID,195,VALID,1.34414,
2011-04-01, 00:36:04,VALID,1003.47,VALID,0,INVALID,163.639,VALID,0,VALID,25.1832,VALID,164,VALID,1.10977,
2011-04-01, 00:37:04,VALID,1003.44,VALID,0,INVALID,163.624,VALID,0,VALID,25.3409,VALID,235,VALID,1.37578,
2011-04-01, 00:38:04,VALID,1003.43,VALID,0,INVALID,163.624,VALID,0,VALID,25.4169,VALID,220,VALID,1.53828,
2011-04-01, 00:39:04,VALID,1003.48,VALID,0,INVALID,163.617,VALID,0,VALID,25.5337,VALID,184,VALID,0.780859,
2011-04-01, 00:40:04,VALID,1003.45,VALID,0,INVALID,163.617,VALID,0,VALID,25.6506,VALID,164,VALID,2.03359,
2011-04-01, 00:41:04,VALID,1003.45,VALID,0,INVALID,163.601,VALID,0,VALID,25.7674,VALID,206,VALID,1.97031,
2011-04-01, 00:42:04,VALID,1003.44,VALID,0,INVALID,163.601,VALID,0,VALID,25.8843,VALID,234,VALID,1.49297,
2011-04-01, 00:43:04,VALID,1003.42,VALID,0,INVALID,163.601,VALID,0,VALID,25.9622,VALID,213,VALID,1.60312,
2011-04-01, 00:44:04,VALID,1003.43,VALID,0,INVALID,163.594,VALID,0,VALID,26.0596,VALID,207,VALID,1.36602,
2011-04-01, 00:45:04,VALID,1003.44,VALID,0,INVALID,163.571,VALID,0,VALID,26.0771,VALID,100,VALID,0.392188,
2011-04-01, 00:46:04,VALID,1003.4,VALID,0,INVALID,163.601,VALID,0,VALID,26.0966,VALID,114,VALID,0.508594,
2011-04-01, 00:47:04,VALID,1003.42,VALID,0,INVALID,163.578,VALID,0,VALID,26.118,VALID,183,VALID,1.91953,
2011-04-01, 00:48:04,VALID,1003.43,VALID,0,INVALID,163.38,VALID,0.100563,VALID,26.1141,VALID,200,VALID,1.5957,
2011-04-01, 00:49:04,VALID,1003.4,VALID,0,INVALID,153.707,VALID,0,VALID,26.155,VALID,213,VALID,2.49102,
2011-04-01, 00:50:04,VALID,1003.4,VALID,0,INVALID,148.435,VALID,0.100563,VALID,26.155,VALID,191,VALID,2.95898,
2011-04-01, 00:51:04,VALID,1003.37,VALID,0,INVALID,147.878,VALID,0.100563,VALID,26.116,VALID,188,VALID,1.45742,
2011-04-01, 00:52:04,VALID,1003.31,VALID,0,INVALID,141.127,VALID,0,VALID,26.0771,VALID,179,VALID,1.60273,
2011-04-01, 00:53:04,VALID,1003.4,VALID,0,VALID,103.15,VALID,0.100563,VALID,26.0401,VALID,212,VALID,2.4707,
2011-04-01, 00:54:04,VALID,1003.37,VALID,0,VALID,99.8773,VALID,0,VALID,25.9602,VALID,250,VALID,2.85039,
2011-04-01, 00:55:04,VALID,1003.4,VALID,0,VALID,98.9847,VALID,0,VALID,25.9213,VALID,232,VALID,1.14375,
2011-04-01, 00:56:04,VALID,1003.37,VALID,0,VALID,97.6192,VALID,0,VALID,25.8629,VALID,231,VALID,2.29531,
2011-04-01, 00:57:04,VALID,1003.37,VALID,0,VALID,96.5969,VALID,0.100563,VALID,25.8453,VALID,256,VALID,1.14922,
2011-04-01, 00:58:04,VALID,1003.33,VALID,0,VALID,94.8499,VALID,0,VALID,25.785,VALID,235,VALID,1.6918,
2011-04-01, 00:59:04,VALID,1003.29,VALID,0,VALID,94.9109,VALID,0,VALID,25.7051,VALID,204,VALID,0.799219,
2011-04-01, 01:00:04,VALID,1003.26,VALID,0,VALID,93.942,VALID,0.100563,VALID,25.6856,VALID,240,VALID,1.3582,
2011-04-01, 01:01:04,VALID,1003.19,VALID,0,VALID,93.141,VALID,0,VALID,25.6681,VALID,175,VALID,1.42383,
2011-04-01, 01:02:04,VALID,1003.17,VALID,0,VALID,94.8728,VALID,0.100563,VALID,25.6681,VALID,139,VALID,0.771484,
2011-04-01, 01:03:04,VALID,1003.14,VALID,0,VALID,95.7272,VALID,0.100563,VALID,25.6486,VALID,173,VALID,0.817187,
2011-04-01, 01:04:04,VALID,1003.14,VALID,0,VALID,96.7647,VALID,0.100563,VALID,25.6292,VALID,190,VALID,3.28164,
2011-04-01, 01:05:04,VALID,1003.1,VALID,0,VALID,96.8639,VALID,0.100563,VALID,25.6272,VALID,181,VALID,2.12891,
2011-04-01, 01:06:04,VALID,1003.16,VALID,0,VALID,95.9103,VALID,0.100563,VALID,25.6097,VALID,171,VALID,2.52852,
2011-04-01, 01:07:04,VALID,1003.19,VALID,0,VALID,96.4672,VALID,0.100563,VALID,25.5493,VALID,197,VALID,1.26836,
2011-04-01, 01:08:04,VALID,1003.27,VALID,0,VALID,97.1614,VALID,0.100563,VALID,25.5104,VALID,181,VALID,1.23242,
2011-04-01, 01:09:04,VALID,1003.31,VALID,0,VALID,97.4361,VALID,0.100563,VALID,25.4928,VALID,179,VALID,1.58672,
2011-04-01, 01:10:04,VALID,1003.33,VALID,0,VALID,96.7495,VALID,0,VALID,25.4344,VALID,209,VALID,2.00273,
2011-04-01, 01:11:04,VALID,1003.37,VALID,0,VALID,97.787,VALID,0.100563,VALID,25.4344,VALID,179,VALID,1.8293,
2011-04-01, 01:12:04,VALID,1003.35,VALID,0,VALID,98.8169,VALID,0.100563,VALID,25.3935,VALID,212,VALID,1.49336,
2011-04-01, 01:13:04,VALID,1003.33,VALID,0,VALID,99.6027,VALID,0.100563,VALID,25.3955,VALID,172,VALID,0.826172,
2011-04-01, 01:14:04,VALID,1003.29,VALID,0,VALID,100.572,VALID,0,VALID,25.376,VALID,185,VALID,1.62422,
2011-04-01, 01:15:04,VALID,1003.27,VALID,0,VALID,99.0458,VALID,0.100563,VALID,25.3565,VALID,214,VALID,1.7082,
2011-04-01, 01:16:04,VALID,1003.21,VALID,0,VALID,97.5505,VALID,0,VALID,25.337,VALID,193,VALID,2.07148,
2011-04-01, 01:17:04,VALID,1003.17,VALID,0,VALID,98.4354,VALID,0.100563,VALID,25.3584,VALID,176,VALID,0.893359,
2011-04-01, 01:18:04,VALID,1003.13,VALID,0,VALID,98.588,VALID,0,VALID,25.3176,VALID,207,VALID,1.00625,
2011-04-01, 01:19:04,VALID,1003.13,VALID,0,VALID,99.8926,VALID,0,VALID,25.3176,VALID,156,VALID,0.739844,
2011-04-01, 01:20:04,VALID,1003.1,VALID,0,VALID,97.9625,VALID,0.100563,VALID,25.2981,VALID,151,VALID,0.642969,
2011-04-01, 01:21:04,VALID,1003.07,VALID,0,VALID,97.6268,VALID,0,VALID,25.2981,VALID,170,VALID,0.715625,
2011-04-01, 01:22:04,VALID,1003.02,VALID,0,VALID,97.2453,VALID,0,VALID,25.2786,VALID,178,VALID,0.289844,
2011-04-01, 01:23:04,VALID,1003.01,VALID,0,VALID,98.3058,VALID,0.100563,VALID,25.2786,VALID,133,VALID,0.376563,
2011-04-01, 01:24:04,VALID,1003.01,VALID,0,VALID,96.3985,VALID,0,VALID,25.2786,VALID,153,VALID,0.761328,
2011-04-01, 01:25:04,VALID,1002.95,VALID,0,VALID,96.8029,VALID,0.100563,VALID,25.3195,VALID,181,VALID,0.710156,
2011-04-01, 01:26:04,VALID,1002.95,VALID,0,VALID,95.5822,VALID,0,VALID,25.337,VALID,165,VALID,2.01445,
2011-04-01, 01:27:04,VALID,1002.93,VALID,0,VALID,95.1932,VALID,0.100563,VALID,25.3565,VALID,118,VALID,0.9875,
2011-04-01, 01:28:04,VALID,1002.89,VALID,0,VALID,97.0088,VALID,0,VALID,25.376,VALID,151,VALID,0.495313,
2011-04-01, 01:29:04,VALID,1002.87,VALID,0,VALID,95.7653,VALID,0,VALID,25.3974,VALID,123,VALID,1.32344,
2011-04-01, 01:30:04,VALID,1002.83,VALID,0,VALID,94.7049,VALID,0,VALID,25.4753,VALID,129,VALID,2.04961,
2011-04-01, 01:31:04,VALID,1002.85,VALID,0,VALID,95.9408,VALID,0,VALID,25.4948,VALID,180,VALID,1.12852,
2011-04-01, 01:32:04,VALID,1002.83,VALID,0,VALID,94.2472,VALID,0,VALID,25.4948,VALID,164,VALID,0.887109,
2011-04-01, 01:33:04,VALID,1002.82,VALID,0,VALID,93.8123,VALID,0,VALID,25.5142,VALID,155,VALID,0.962109,
2011-04-01, 01:34:04,VALID,1002.79,VALID,0,VALID,93.3622,VALID,0,VALID,25.5337,VALID,141,VALID,0.487891,
2011-04-01, 01:35:04,VALID,1002.82,VALID,0,VALID,94.3845,VALID,0,VALID,25.5318,VALID,145,VALID,0.478125,
2011-04-01, 01:36:04,VALID,1002.81,VALID,0,VALID,94.6439,VALID,0,VALID,25.5337,VALID,91,VALID,0.564453,
2011-04-01, 01:37:04,VALID,1002.81,VALID,0,VALID,94.6744,VALID,0,VALID,25.5532,VALID,105,VALID,0.457031,
2011-04-01, 01:38:04,VALID,1002.78,VALID,0,VALID,91.5695,VALID,0,VALID,25.5532,VALID,144,VALID,1.74063,
2011-04-01, 01:39:04,VALID,1002.75,VALID,0,VALID,92.7062,VALID,0,VALID,25.5532,VALID,154,VALID,0.917578,
2011-04-01, 01:40:04,VALID,1002.73,VALID,0,VALID,93.8123,VALID,0,VALID,25.5532,VALID,129,VALID,0.297266,
2011-04-01, 01:41:04,VALID,1002.7,VALID,0,VALID,93.2325,VALID,0,VALID,25.5142,VALID,129,VALID,0.173047,
2011-04-01, 01:42:04,VALID,1002.65,VALID,0,VALID,91.6152,VALID,0,VALID,25.5337,VALID,130,VALID,0.355078,
2011-04-01, 01:43:04,VALID,1002.66,VALID,0,VALID,92.134,VALID,0,VALID,25.5142,VALID,133,VALID,0.478125,
2011-04-01, 01:44:04,VALID,1002.7,VALID,0,VALID,93.0952,VALID,0,VALID,25.5357,VALID,211,VALID,0.291406,
2011-04-01, 01:45:04,VALID,1002.71,VALID,0,VALID,93.6216,VALID,0,VALID,25.5142,VALID,106,VALID,0.393359,
2011-04-01, 01:46:04,VALID,1002.74,VALID,0,VALID,95.8874,VALID,0,VALID,25.5142,VALID,154,VALID,0.533203,
2011-04-01, 01:47:04,VALID,1002.75,VALID,0,VALID,95.8645,VALID,0,VALID,25.4948,VALID,194,VALID,1.72187,
2011-04-01, 01:48:04,VALID,1002.78,VALID,0,VALID,96.4214,VALID,0,VALID,25.4149,VALID,162,VALID,1.95078,
2011-04-01, 01:49:04,VALID,1002.84,VALID,0,VALID,96.7495,VALID,0,VALID,25.3409,VALID,164,VALID,2.35938,
2011-04-01, 01:50:04,VALID,1002.87,VALID,0,VALID,97.9701,VALID,0,VALID,25.2611,VALID,182,VALID,1.63594,
2011-04-01, 01:51:04,VALID,1002.89,VALID,0,VALID,99.3891,VALID,0,VALID,25.2027,VALID,151,VALID,1.10703,
2011-04-01, 01:52:04,VALID,1002.88,VALID,0,VALID,99.2517,VALID,0,VALID,25.1267,VALID,165,VALID,2.46836,
2011-04-01, 01:53:04,VALID,1002.91,VALID,0,VALID,104,VALID,0,VALID,25.0274,VALID,155,VALID,1.59258,
2011-04-01, 01:54:04,VALID,1002.93,VALID,0,INVALID,112.549,VALID,0,VALID,24.969,VALID,144,VALID,1.8457,
2011-04-01, 01:55:04,VALID,1002.92,VALID,0,INVALID,120.857,VALID,0,VALID,24.9495,VALID,164,VALID,1.17344,
2011-04-01, 01:56:04,VALID,1002.97,VALID,0,INVALID,145.841,VALID,0,VALID,24.9106,VALID,141,VALID,2.3668,
2011-04-01, 01:57:04,VALID,1002.95,VALID,0,INVALID,163.617,VALID,0,VALID,24.9106,VALID,164,VALID,2.07422,
2011-04-01, 01:58:04,VALID,1002.94,VALID,0,INVALID,163.67,VALID,0,VALID,24.9106,VALID,144,VALID,1.76172,
2011-04-01, 01:59:04,VALID,1002.91,VALID,0,INVALID,163.67,VALID,0,VALID,24.8697,VALID,148,VALID,1.85234,
2011-04-01, 02:00:04,VALID,1002.88,VALID,0,INVALID,163.67,VALID,0,VALID,24.8911,VALID,115,VALID,2.37812,
2011-04-01, 02:01:05,VALID,1002.87,VALID,0,INVALID,163.67,VALID,0,VALID,24.93,VALID,142,VALID,1.88633,
2011-04-01, 02:02:05,VALID,1002.83,VALID,0,INVALID,163.662,VALID,0,VALID,24.93,VALID,157,VALID,1.32422,
2011-04-01, 02:03:05,VALID,1002.78,VALID,0,INVALID,163.639,VALID,0,VALID,24.969,VALID,152,VALID,2.21992,
2011-04-01, 02:04:05,VALID,1002.81,VALID,0,INVALID,163.67,VALID,0,VALID,24.9885,VALID,157,VALID,1.40469,
2011-04-01, 02:05:05,VALID,1002.8,VALID,0,INVALID,163.632,VALID,0,VALID,24.9885,VALID,169,VALID,1.12422,
2011-04-01, 02:06:05,VALID,1002.83,VALID,0,INVALID,163.662,VALID,0,VALID,24.9885,VALID,151,VALID,1.58594,
2011-04-01, 02:07:05,VALID,1002.82,VALID,0,INVALID,163.67,VALID,0,VALID,24.9885,VALID,133,VALID,1.75742,
2011-04-01, 02:08:05,VALID,1002.81,VALID,0,INVALID,163.655,VALID,0,VALID,25.0274,VALID,169,VALID,2.23867,
2011-04-01, 02:09:05,VALID,1002.87,VALID,0,INVALID,163.632,VALID,0,VALID,25.0682,VALID,164,VALID,1.57148,
2011-04-01, 02:10:05,VALID,1002.92,VALID,0,INVALID,163.655,VALID,0,VALID,25.0663,VALID,141,VALID,1.4793,
2011-04-01, 02:11:05,VALID,1002.91,VALID,0,INVALID,163.639,VALID,0,VALID,25.0644,VALID,146,VALID,1.40586,
2011-04-01, 02:12:05,VALID,1002.91,VALID,0,INVALID,163.647,VALID,0,VALID,25.0858,VALID,153,VALID,1.26992,
2011-04-01, 02:13:05,VALID,1002.95,VALID,0,INVALID,163.624,VALID,0,VALID,25.1248,VALID,139,VALID,1.6,
2011-04-01, 02:14:05,VALID,1002.94,VALID,0,INVALID,163.639,VALID,0,VALID,25.1053,VALID,124,VALID,1.17031,
2011-04-01, 02:15:05,VALID,1002.92,VALID,0,INVALID,163.655,VALID,0,VALID,25.1229,VALID,149,VALID,1.55313,
2011-04-01, 02:16:05,VALID,1002.91,VALID,0,INVALID,163.639,VALID,0,VALID,25.1637,VALID,141,VALID,2.60391,
2011-04-01, 02:17:05,VALID,1002.91,VALID,0,INVALID,163.639,VALID,0,VALID,25.1813,VALID,114,VALID,1.93789,
2011-04-01, 02:18:05,VALID,1002.88,VALID,0,INVALID,163.609,VALID,0,VALID,25.2221,VALID,144,VALID,2.37461,
2011-04-01, 02:19:05,VALID,1002.85,VALID,0,INVALID,131.941,VALID,0,VALID,25.2611,VALID,122,VALID,2.14102,
2011-04-01, 02:20:05,VALID,1002.83,VALID,0,INVALID,118.019,VALID,0,VALID,25.3,VALID,157,VALID,1.26758,
2011-04-01, 02:21:05,VALID,1002.83,VALID,0,INVALID,119.354,VALID,0,VALID,25.3176,VALID,164,VALID,1.4168,
2011-04-01, 02:22:05,VALID,1002.83,VALID,0,INVALID,125.449,VALID,0,VALID,25.3584,VALID,135,VALID,1.11211,
2011-04-01, 02:23:05,VALID,1002.82,VALID,0,INVALID,120.086,VALID,0,VALID,25.339,VALID,155,VALID,1.21797,
2011-04-01, 02:24:05,VALID,1002.83,VALID,0,INVALID,116.874,VALID,0,VALID,25.339,VALID,131,VALID,1.70195,
2011-04-01, 02:25:05,VALID,1002.8,VALID,0,INVALID,120.727,VALID,0,VALID,25.3176,VALID,156,VALID,1.00391,
2011-04-01, 02:26:05,VALID,1002.77,VALID,0,INVALID,111.458,VALID,0,VALID,25.337,VALID,164,VALID,1.87266,
2011-04-01, 02:27:05,VALID,1002.75,VALID,0,INVALID,109.978,VALID,0,VALID,25.3974,VALID,161,VALID,1.81719,
2011-04-01, 02:28:05,VALID,1002.75,VALID,0,INVALID,110.527,VALID,0,VALID,25.376,VALID,149,VALID,1.10547,
2011-04-01, 02:29:05,VALID,1002.72,VALID,0,VALID,104,VALID,0,VALID,25.4363,VALID,151,VALID,1.49531,
2011-04-01, 02:30:05,VALID,1002.71,VALID,0,VALID,103.471,VALID,0,VALID,25.4753,VALID,156,VALID,1.5582,
2011-04-01, 02:31:05,VALID,1002.73,VALID,0,VALID,99.8163,VALID,0,VALID,25.4734,VALID,163,VALID,1.79531,
2011-04-01, 02:32:05,VALID,1002.75,VALID,0,VALID,98.321,VALID,0,VALID,25.5337,VALID,180,VALID,1.62461,
2011-04-01, 02:33:05,VALID,1002.7,VALID,0,VALID,94.2319,VALID,0,VALID,25.5318,VALID,196,VALID,2.72187,
2011-04-01, 02:34:05,VALID,1002.75,VALID,0,VALID,93.2325,VALID,0,VALID,25.5921,VALID,160,VALID,2.42773,
2011-04-01, 02:35:05,VALID,1002.76,VALID,0,VALID,92.1798,VALID,0,VALID,25.6311,VALID,159,VALID,2.19609,
2011-04-01, 02:36:05,VALID,1002.74,VALID,0,VALID,92.2866,VALID,0,VALID,25.6116,VALID,163,VALID,1.4793,
2011-04-01, 02:37:05,VALID,1002.8,VALID,0,VALID,91.7831,VALID,0,VALID,25.6116,VALID,159,VALID,2.96016,
2011-04-01, 02:38:05,VALID,1002.79,VALID,0,VALID,91.8822,VALID,0,VALID,25.6311,VALID,143,VALID,2.48203,
2011-04-01, 02:39:05,VALID,1002.78,VALID,0,VALID,92.073,VALID,0,VALID,25.6097,VALID,177,VALID,1.91133,
2011-04-01, 02:40:05,VALID,1002.8,VALID,0,VALID,93.141,VALID,0,VALID,25.6097,VALID,156,VALID,1.38008,
2011-04-01, 02:41:05,VALID,1002.8,VALID,0,VALID,91.8899,VALID,0,VALID,25.6116,VALID,159,VALID,0.987109,
2011-04-01, 02:42:05,VALID,1002.77,VALID,0,VALID,92.2408,VALID,0,VALID,25.5921,VALID,145,VALID,1.5043,
2011-04-01, 02:43:05,VALID,1002.77,VALID,0,VALID,89.9674,VALID,0,VALID,25.5902,VALID,150,VALID,2.62852,
2011-04-01, 02:44:05,VALID,1002.74,VALID,0,VALID,88.8841,VALID,0,VALID,25.6116,VALID,170,VALID,1.76836,
2011-04-01, 02:45:05,VALID,1002.74,VALID,0,VALID,88.4035,VALID,0,VALID,25.5707,VALID,168,VALID,2.09414,
2011-04-01, 02:46:05,VALID,1002.75,VALID,0,VALID,88.8307,VALID,0,VALID,25.5921,VALID,197,VALID,2.00625,
2011-04-01, 02:47:05,VALID,1002.75,VALID,0,VALID,88.8841,VALID,0,VALID,25.5941,VALID,149,VALID,1.6543,
2011-04-01, 02:48:05,VALID,1002.76,VALID,0,VALID,87.8847,VALID,0,VALID,25.5727,VALID,167,VALID,2.2832,
2011-04-01, 02:49:05,VALID,1002.77,VALID,0,VALID,89.0519,VALID,0,VALID,25.5337,VALID,148,VALID,1.78516,
2011-04-01, 02:50:05,VALID,1002.8,VALID,0,VALID,88.0373,VALID,0,VALID,25.4928,VALID,183,VALID,1.88984,
2011-04-01, 02:51:05,VALID,1002.77,VALID,0,VALID,88.1365,VALID,0,VALID,25.4948,VALID,183,VALID,2.40273,
2011-04-01, 02:52:05,VALID,1002.81,VALID,0,VALID,89.9216,VALID,0,VALID,25.4539,VALID,142,VALID,1.59883,
2011-04-01, 02:53:05,VALID,1002.82,VALID,0,VALID,88.1441,VALID,0,VALID,25.4344,VALID,167,VALID,1.80156,
2011-04-01, 02:54:05,VALID,1002.82,VALID,0,VALID,87.9839,VALID,0,VALID,25.4363,VALID,181,VALID,2.43281,
2011-04-01, 02:55:05,VALID,1002.82,VALID,0,VALID,87.6711,VALID,0,VALID,25.3974,VALID,162,VALID,2.46133,
2011-04-01, 02:56:05,VALID,1002.83,VALID,0,VALID,90.0055,VALID,0,VALID,25.3584,VALID,176,VALID,0.694141,
2011-04-01, 02:57:05,VALID,1002.83,VALID,0,VALID,89.5707,VALID,0,VALID,25.2981,VALID,146,VALID,1.20273,
2011-04-01, 02:58:05,VALID,1002.83,VALID,0,VALID,89.4028,VALID,0,VALID,25.2416,VALID,177,VALID,1.37539,
2011-04-01, 02:59:05,VALID,1002.83,VALID,0,VALID,91.1193,VALID,0.100563,VALID,25.2202,VALID,160,VALID,1.00156,
2011-04-01, 03:00:05,VALID,1002.82,VALID,0,VALID,90.1276,VALID,0,VALID,25.1618,VALID,176,VALID,2.75195,
2011-04-01, 03:01:05,VALID,1002.83,VALID,0,VALID,91.7983,VALID,0.100563,VALID,25.1832,VALID,153,VALID,1.84141,
2011-04-01, 03:02:05,VALID,1002.81,VALID,0,VALID,92.0882,VALID,0,VALID,25.1229,VALID,155,VALID,1.71641,
2011-04-01, 03:03:05,VALID,1002.81,VALID,0,VALID,92.1187,VALID,0,VALID,25.0644,VALID,164,VALID,2.49297,
2011-04-01, 03:04:05,VALID,1002.79,VALID,0,VALID,92.5078,VALID,0.100563,VALID,25.0236,VALID,177,VALID,2.23203,
2011-04-01, 03:05:05,VALID,1002.79,VALID,0,VALID,94.6668,VALID,0.100563,VALID,25.006,VALID,157,VALID,0.829297,
2011-04-01, 03:06:05,VALID,1002.79,VALID,0,VALID,94.888,VALID,0.100563,VALID,24.9476,VALID,161,VALID,1.80938,
2011-04-01, 03:07:05,VALID,1002.79,VALID,0,VALID,96.162,VALID,0.100563,VALID,24.9282,VALID,178,VALID,1.97266,
2011-04-01, 03:08:05,VALID,1002.76,VALID,0,VALID,96.8715,VALID,0.100563,VALID,24.8679,VALID,185,VALID,0.746875,
2011-04-01, 03:09:05,VALID,1002.81,VALID,0,VALID,98.6109,VALID,0,VALID,24.8503,VALID,203,VALID,1.18398,
2011-04-01, 03:10:05,VALID,1002.79,VALID,0,VALID,96.5587,VALID,0.100563,VALID,24.79,VALID,136,VALID,1.39961,
2011-04-01, 03:11:05,VALID,1002.79,VALID,0,VALID,97.5581,VALID,0.100563,VALID,24.751,VALID,180,VALID,0.974609,
2011-04-01, 03:12:05,VALID,1002.8,VALID,0,VALID,98.9542,VALID,0,VALID,24.7335,VALID,174,VALID,1.53437,
2011-04-01, 03:13:05,VALID,1002.77,VALID,0,VALID,98.8093,VALID,0,VALID,24.714,VALID,159,VALID,1.75117,
2011-04-01, 03:14:05,VALID,1002.79,VALID,0,VALID,100.465,VALID,0,VALID,24.7335,VALID,154,VALID,2.06758,
2011-04-01, 03:15:05,VALID,1002.77,VALID,0,VALID,99.679,VALID,0,VALID,24.7567,VALID,191,VALID,1.77656,
2011-04-01, 03:16:05,VALID,1002.79,VALID,0.5,VALID,101.083,VALID,0,VALID,24.7335,VALID,165,VALID,1.72773,
2011-04-01, 03:17:05,VALID,1002.82,VALID,0,VALID,104,VALID,0,VALID,24.714,VALID,112,VALID,0.717578,
2011-04-01, 03:18:05,VALID,1002.82,VALID,0,INVALID,110.359,VALID,0,VALID,24.675,VALID,140,VALID,0.903516,
2011-04-01, 03:19:05,VALID,1002.82,VALID,0,INVALID,116.981,VALID,0,VALID,24.675,VALID,148,VALID,1.43281,
2011-04-01, 03:20:05,VALID,1002.82,VALID,0,INVALID,117.34,VALID,0,VALID,24.638,VALID,136,VALID,1.13945,
2011-04-01, 03:21:05,VALID,1002.87,VALID,0,INVALID,121.322,VALID,0,VALID,24.6361,VALID,161,VALID,1.24102,
2011-04-01, 03:22:05,VALID,1002.86,VALID,0,INVALID,120.735,VALID,0,VALID,24.638,VALID,150,VALID,1.28672,
2011-04-01, 03:23:05,VALID,1002.83,VALID,0,INVALID,141.172,VALID,0,VALID,24.5972,VALID,136,VALID,0.809766,
2011-04-01, 03:24:05,VALID,1002.82,VALID,0,INVALID,156.873,VALID,0,VALID,24.5796,VALID,140,VALID,1.56523,
2011-04-01, 03:25:05,VALID,1002.82,VALID,0,INVALID,163.647,VALID,0,VALID,24.5193,VALID,143,VALID,1.32773,
2011-04-01, 03:26:05,VALID,1002.81,VALID,0,INVALID,163.693,VALID,0,VALID,24.5017,VALID,144,VALID,0.850391,
2011-04-01, 03:27:05,VALID,1002.8,VALID,0,INVALID,163.685,VALID,0,VALID,24.4609,VALID,172,VALID,0.798828,
2011-04-01, 03:28:05,VALID,1002.76,VALID,0,INVALID,163.685,VALID,0,VALID,24.4414,VALID,162,VALID,1.64766,
2011-04-01, 03:29:05,VALID,1002.76,VALID,0,INVALID,163.708,VALID,0,VALID,24.4609,VALID,149,VALID,0.721875,
2011-04-01, 03:30:05,VALID,1002.76,VALID,0,INVALID,163.678,VALID,0,VALID,24.4433,VALID,104,VALID,0.753906,
2011-04-01, 03:31:05,VALID,1002.68,VALID,0.5,INVALID,163.693,VALID,0,VALID,24.4414,VALID,157,VALID,0.569141,
2011-04-01, 03:32:05,VALID,1002.69,VALID,0,INVALID,163.662,VALID,0,VALID,24.4414,VALID,148,VALID,1.22109,
2011-04-01, 03:33:05,VALID,1002.67,VALID,0,INVALID,163.716,VALID,0.100563,VALID,24.4609,VALID,163,VALID,1.03516,
2011-04-01, 03:34:05,VALID,1002.67,VALID,0,INVALID,163.701,VALID,0,VALID,24.4433,VALID,177,VALID,0.492969,
2011-04-01, 03:35:05,VALID,1002.65,VALID,0,INVALID,163.701,VALID,0,VALID,24.383,VALID,140,VALID,0.463672,
2011-04-01, 03:36:05,VALID,1002.65,VALID,0,INVALID,163.723,VALID,0.100563,VALID,24.3636,VALID,121,VALID,0.314453,
2011-04-01, 03:37:05,VALID,1002.62,VALID,0,INVALID,163.716,VALID,0,VALID,24.3246,VALID,141,VALID,0.588281,
2011-04-01, 03:38:05,VALID,1002.62,VALID,0,INVALID,163.708,VALID,0,VALID,24.3052,VALID,156,VALID,0.235547,
2011-04-01, 03:39:05,VALID,1002.58,VALID,0,INVALID,163.67,VALID,0,VALID,24.2875,VALID,210,VALID,1.525,
2011-04-01, 03:40:05,VALID,1002.57,VALID,0,INVALID,163.708,VALID,0,VALID,24.2857,VALID,150,VALID,2.10234,
2011-04-01, 03:41:05,VALID,1002.59,VALID,0,INVALID,161.534,VALID,0.100563,VALID,24.3636,VALID,193,VALID,1.78359,